Flag for Brazil Weather past 2 weeks in Florianópolis, Santa Catarina, Brazil

Now
72 °F

Scattered clouds.


Feels Like: 74 °F
Forecast: 61 / 70 °F
Wind: 23 mph from South

Location: Florianopolis Aeroporto

Current Time: Sep 1, 2015 at 8:04:56 AM

Latest Report: Sep 1, 2015 at 7:00 AM


Visibility: N/A

Pressure: 30.07 "Hg

Humidity: 73%

Dew point: 63 °F

Location of FlorianópolisLocation

Historic Weather in Florianópolis — Graph

°F

Florianópolis temperature yesterday

Maximum temperature yesterday: 88 °F (at 2:00 PM)
Minimum temperature yesterday: 63 °F (at 4:00 AM)
Average temperature yesterday: 72 °F

Past Weeks' High & Low Weather Summary

 TemperatureHumidityPressure
High88 °F (Aug 31, 2:00 PM)94% (Aug 17, 7:00 AM)30.24 "Hg (Aug 17, 7:00 AM)
Low55 °F (Aug 28, 5:00 AM)33% (Aug 31, 2:00 PM)29.80 "Hg (Aug 23, 7:00 AM)
Average68 °F78%30.04 "Hg
* Reported Aug 17 6:00 AM — Sep 1 6:00 AM, Florianópolis, Weather by CustomWeather, © 2015

Note: Actual official high and low records may vary slightly from our data, if they occured in-between our weather recording intervals... More about our weather records

Advertising

Florianópolis weather history for previous 24 hours

 ConditionsComfort  
Time TempWeatherWind HumidityBarometerVisibility
6:00 AM
Tue, Sep 1
75 °FPassing clouds.10 mph65%30.04 "HgN/A
5:00 AM75 °FPassing clouds.16 mph65%29.98 "HgN/A
4:00 AM75 °FPassing clouds.24 mph65%29.95 "HgN/A
3:00 AM70 °FPassing clouds.7 mph83%29.92 "HgN/A
2:00 AM70 °FClear.2 mph83%29.92 "Hg10 mi
12:00 AM70 °FClear.2 mph88%29.95 "Hg10 mi
11:00 PM
Mon, Aug 31
70 °FClear.3 mph88%29.95 "Hg10 mi
10:00 PM70 °FClear.2 mph83%29.95 "Hg10 mi
9:00 PM68 °FClear.No wind83%29.95 "Hg10 mi
8:00 PM68 °FClear.No wind83%29.95 "Hg10 mi
6:00 PM75 °FClear.3 mph61%29.92 "Hg10 mi
5:00 PM81 °FClear.5 mph51%29.89 "Hg10 mi
4:00 PM81 °FSunny.9 mph54%29.86 "Hg10 mi
3:00 PM84 °FSunny.8 mph45%29.89 "Hg10 mi
2:00 PM88 °FSunny.9 mph33%29.89 "Hg10 mi
1:00 PM82 °FSunny.9 mph51%29.92 "Hg10 mi
12:00 PM84 °FSunny.10 mph51%29.92 "Hg10 mi
11:00 AM77 °FSunny.13 mph65%29.95 "Hg10 mi
10:00 AM73 °FSunny.16 mph78%29.95 "Hg10 mi
9:00 AM68 °FPassing clouds.12 mph94%30.01 "Hg4 mi
8:00 AM66 °FFog.13 mph94%29.98 "Hg3 mi
Weather by CustomWeather, © 2015

See weather overviewHow to use our weather pages